| time (UTC) | temp F | wind direction | speed MPH | gust MPH | rain 1hr in | rain 24hr in | rain mn in | humidity % | barometer mb |
| 20260902234515 | 85 | 0 | 0.0 | 3.0 | 0.00 | 0.00 | 0.00 | 60 | 1021.4 |
| 20260902234015 | 85 | 328 | 1.0 | 4.0 | 0.00 | 0.00 | 0.00 | 60 | 1021.3 |
| 20260902233515 | 85 | 328 | 1.0 | 4.0 | 0.00 | 0.00 | 0.00 | 60 | 1021.3 |
| 20260902233015 | 85 | 328 | 1.0 | 3.0 | 0.00 | 0.00 | 0.00 | 60 | 1021.3 |
| 20260902232515 | 85 | 0 | 0.0 | 3.0 | 0.00 | 0.00 | 0.00 | 60 | 1021.3 |
| 20260902232015 | 85 | 0 | 0.0 | 3.0 | 0.00 | 0.00 | 0.00 | 60 | 1021.4 |
| 20260902231518 | 85 | 0 | 0.0 | 3.0 | 0.00 | 0.00 | 0.00 | 60 | 1021.3 |
| 20260902231015 | 86 | 0 | 0.0 | 0.0 | 0.00 | 0.00 | 0.00 | 61 | 1021.3 |
| 20260902230516 | 86 | 0 | 0.0 | 3.0 | 0.00 | 0.00 | 0.00 | 61 | 1021.2 |
| 20260902230015 | 86 | 0 | 0.0 | 3.0 | 0.00 | 0.00 | 0.00 | 62 | 1021.2 |
| 20260902225515 | 87 | 0 | 0.0 | 2.0 | 0.00 | 0.00 | 0.00 | 62 | 1021.2 |
| 20260902225015 | 87 | 0 | 0.0 | 2.0 | 0.00 | 0.00 | 0.00 | 61 | 1021.2 |
| 20260902224514 | 87 | 0 | 0.0 | 0.0 | 0.00 | 0.00 | 0.00 | 61 | 1021.2 |
| 20260902224015 | 87 | 0 | 0.0 | 0.0 | 0.00 | 0.00 | 0.00 | 61 | 1021.2 |
| 20260902223514 | 87 | 0 | 0.0 | 0.0 | 0.00 | 0.00 | 0.00 | 61 | 1021.1 |
| 20260902223015 | 88 | 0 | 0.0 | 4.0 | 0.00 | 0.00 | 0.00 | 60 | 1021.2 |
| 20260902222515 | 88 | 0 | 0.0 | 4.0 | 0.00 | 0.00 | 0.00 | 61 | 1021.2 |
| 20260902222015 | 88 | 0 | 0.0 | 3.0 | 0.00 | 0.00 | 0.00 | 60 | 1021.2 |
| 20260902221515 | 88 | 0 | 0.0 | 3.0 | 0.00 | 0.00 | 0.00 | 59 | 1021.2 |
| 20260902221014 | 88 | 0 | 0.0 | 3.0 | 0.00 | 0.00 | 0.00 | 59 | 1021.4 |
| 20260902220515 | 88 | 0 | 0.0 | 3.0 | 0.00 | 0.00 | 0.00 | 58 | 1021.4 |
| 20260902220015 | 89 | 0 | 0.0 | 0.0 | 0.00 | 0.00 | 0.00 | 59 | 1021.3 |
| 20260902215515 | 89 | 0 | 0.0 | 2.0 | 0.00 | 0.00 | 0.00 | 57 | 1021.4 |
| 20260902215015 | 90 | 0 | 0.0 | 2.0 | 0.00 | 0.00 | 0.00 | 57 | 1021.5 |
| 20260902214515 | 90 | 0 | 0.0 | 0.0 | 0.00 | 0.00 | 0.00 | 56 | 1021.4 |
| 20260902214014 | 90 | 0 | 0.0 | 0.0 | 0.00 | 0.00 | 0.00 | 56 | 1021.5 |
| 20260902213515 | 90 | 0 | 0.0 | 1.0 | 0.00 | 0.00 | 0.00 | 57 | 1021.4 |
| 20260902213015 | 90 | 0 | 0.0 | 1.0 | 0.00 | 0.00 | 0.00 | 55 | 1021.3 |
| 20260902212515 | 91 | 0 | 0.0 | 2.0 | 0.00 | 0.00 | 0.00 | 55 | 1021.3 |
| 20260902212014 | 91 | 0 | 0.0 | 2.0 | 0.00 | 0.00 | 0.00 | 55 | 1021.3 |
| 20260902211514 | 91 | 0 | 0.0 | 0.0 | 0.00 | 0.00 | 0.00 | 55 | 1021.4 |
| 20260902211015 | 91 | 0 | 0.0 | 0.0 | 0.00 | 0.00 | 0.00 | 55 | 1021.3 |
| 20260902210515 | 91 | 0 | 0.0 | 0.0 | 0.00 | 0.00 | 0.00 | 54 | 1021.3 |
| 20260902210015 | 91 | 0 | 0.0 | 0.0 | 0.00 | 0.00 | 0.00 | 54 | 1021.3 |
| 20260902205515 | 91 | 0 | 0.0 | 2.0 | 0.00 | 0.00 | 0.00 | 54 | 1021.4 |
| 20260902205015 | 91 | 0 | 0.0 | 2.0 | 0.00 | 0.00 | 0.00 | 56 | 1021.3 |
| 20260902204515 | 91 | 0 | 0.0 | 2.0 | 0.00 | 0.00 | 0.00 | 53 | 1021.4 |
| 20260902204015 | 92 | 0 | 0.0 | 1.0 | 0.00 | 0.00 | 0.00 | 55 | 1021.4 |
| 20260902203514 | 92 | 0 | 0.0 | 3.0 | 0.00 | 0.00 | 0.00 | 54 | 1021.4 |
| 20260902203014 | 92 | 0 | 0.0 | 3.0 | 0.00 | 0.00 | 0.00 | 53 | 1021.4 |
| 20260902202514 | 92 | 0 | 0.0 | 2.0 | 0.00 | 0.00 | 0.00 | 53 | 1021.4 |
| 20260902202015 | 91 | 0 | 0.0 | 2.0 | 0.00 | 0.00 | 0.00 | 54 | 1021.4 |
| 20260902201514 | 91 | 0 | 0.0 | 3.0 | 0.00 | 0.00 | 0.00 | 54 | 1021.6 |
| 20260902201014 | 91 | 0 | 0.0 | 3.0 | 0.00 | 0.00 | 0.00 | 56 | 1021.6 |
| 20260902200514 | 90 | 0 | 0.0 | 4.0 | 0.00 | 0.00 | 0.00 | 56 | 1021.7 |
| 20260902200014 | 90 | 0 | 0.0 | 4.0 | 0.00 | 0.00 | 0.00 | 55 | 1021.7 |
| 20260902195514 | 90 | 0 | 0.0 | 4.0 | 0.00 | 0.00 | 0.00 | 58 | 1021.8 |
| 20260902195014 | 89 | 0 | 0.0 | 4.0 | 0.00 | 0.00 | 0.00 | 59 | 1021.8 |
| 20260902194515 | 88 | 0 | 0.0 | 4.0 | 0.00 | 0.00 | 0.00 | 60 | 1021.9 |
| 20260902194015 | 87 | 0 | 0.0 | 3.0 | 0.00 | 0.00 | 0.00 | 60 | 1021.9 |
| 20260902193437 | 86 | 0 | 0.0 | 4.0 | 0.00 | 0.00 | 0.00 | 62 | 1022.0 |
| 20260902192936 | 86 | 328 | 1.0 | 4.0 | 0.00 | 0.00 | 0.00 | 62 | 1022.1 |
| 20260902192439 | 85 | 0 | 0.0 | 3.0 | 0.00 | 0.00 | 0.00 | 63 | 1022.1 |
| 20260902191936 | 85 | 0 | 0.0 | 3.0 | 0.00 | 0.00 | 0.00 | 62 | 1022.2 |
| 20260902191436 | 85 | 0 | 0.0 | 4.0 | 0.00 | 0.00 | 0.00 | 62 | 1022.2 |
| 20260902190936 | 86 | 0 | 0.0 | 4.0 | 0.00 | 0.00 | 0.00 | 61 | 1022.2 |
| 20260902190436 | 86 | 328 | 1.0 | 4.0 | 0.00 | 0.00 | 0.00 | 62 | 1022.3 |
| 20260902185936 | 87 | 0 | 0.0 | 3.0 | 0.00 | 0.00 | 0.00 | 58 | 1022.3 |
| 20260902185439 | 88 | 0 | 0.0 | 6.0 | 0.00 | 0.00 | 0.00 | 58 | 1022.4 |
| 20260902184936 | 88 | 328 | 1.0 | 6.0 | 0.00 | 0.00 | 0.00 | 60 | 1022.4 |
| 20260902184436 | 88 | 0 | 0.0 | 4.0 | 0.00 | 0.00 | 0.00 | 56 | 1022.4 |
| 20260902183936 | 89 | 0 | 0.0 | 4.0 | 0.00 | 0.00 | 0.00 | 56 | 1022.4 |
| 20260902183437 | 89 | 0 | 0.0 | 3.0 | 0.00 | 0.00 | 0.00 | 56 | 1022.4 |
| 20260902182936 | 91 | 0 | 0.0 | 4.0 | 0.00 | 0.00 | 0.00 | 54 | 1022.4 |
| 20260902182439 | 91 | 0 | 0.0 | 4.0 | 0.00 | 0.00 | 0.00 | 53 | 1022.4 |
| 20260902181937 | 90 | 0 | 0.0 | 3.0 | 0.00 | 0.00 | 0.00 | 57 | 1022.5 |
| 20260902181436 | 89 | 0 | 0.0 | 3.0 | 0.00 | 0.00 | 0.00 | 58 | 1022.5 |
| 20260902180936 | 88 | 328 | 1.0 | 3.0 | 0.00 | 0.00 | 0.00 | 58 | 1022.5 |
| 20260902180436 | 88 | 0 | 0.0 | 5.0 | 0.00 | 0.00 | 0.00 | 58 | 1022.6 |
| 20260902175936 | 88 | 328 | 3.0 | 5.0 | 0.00 | 0.00 | 0.00 | 57 | 1022.7 |
| 20260902175437 | 88 | 328 | 2.0 | 4.0 | 0.00 | 0.00 | 0.00 | 59 | 1022.7 |
| 20260902174936 | 88 | 0 | 0.0 | 4.0 | 0.00 | 0.00 | 0.00 | 58 | 1022.8 |
| 20260902174436 | 88 | 328 | 1.0 | 4.0 | 0.00 | 0.00 | 0.00 | 60 | 1022.8 |
| 20260902173936 | 87 | 328 | 1.0 | 4.0 | 0.00 | 0.00 | 0.00 | 59 | 1022.9 |
| 20260902173436 | 86 | 328 | 1.0 | 4.0 | 0.00 | 0.00 | 0.00 | 60 | 1022.9 |
| 20260902172937 | 87 | 0 | 0.0 | 3.0 | 0.00 | 0.00 | 0.00 | 60 | 1023.0 |
| 20260902172418 | 86 | 0 | 0.0 | 1.0 | 0.00 | 0.00 | 0.00 | 60 | 1023.0 |
| 20260902171606 | 86 | 0 | 0.0 | 3.0 | 0.00 | 0.00 | 0.00 | 61 | 1023.1 |
| 20260902171106 | 86 | 328 | 1.0 | 3.0 | 0.00 | 0.00 | 0.00 | 62 | 1023.1 |
| 20260902170606 | 86 | 0 | 0.0 | 0.0 | 0.00 | 0.00 | 0.00 | 63 | 1023.0 |
| 20260902170416 | 86 | 0 | 0.0 | 2.0 | 0.00 | 0.00 | 0.00 | 62 | 1023.2 |
| 20260902170414 | 86 | 0 | 0.0 | 2.0 | 0.00 | 0.00 | 0.00 | 62 | 1023.2 |
| 20260902170106 | 86 | 0 | 0.0 | 2.0 | 0.00 | 0.00 | 0.00 | 62 | 1023.2 |
| 20260902165606 | 86 | 0 | 0.0 | 2.0 | 0.00 | 0.00 | 0.00 | 62 | 1023.2 |
| 20260902165409 | 85 | 0 | 0.0 | 2.0 | 0.00 | 0.00 | 0.00 | 65 | 1023.2 |
| 20260902165109 | 85 | 0 | 0.0 | 2.0 | 0.00 | 0.00 | 0.00 | 65 | 1023.2 |
| 20260902164916 | 85 | 0 | 0.0 | 2.0 | 0.00 | 0.00 | 0.00 | 64 | 1023.2 |
| 20260902164606 | 85 | 0 | 0.0 | 2.0 | 0.00 | 0.00 | 0.00 | 64 | 1023.2 |
| 20260902164239 | 86 | 0 | 0.0 | 3.0 | 0.00 | 0.00 | 0.00 | 63 | 1023.3 |
| 20260902164106 | 86 | 0 | 0.0 | 3.0 | 0.00 | 0.00 | 0.00 | 63 | 1023.3 |
| 20260902163606 | 87 | 0 | 0.0 | 4.0 | 0.00 | 0.00 | 0.00 | 61 | 1023.4 |
| 20260902163109 | 88 | 328 | 2.0 | 4.0 | 0.00 | 0.00 | 0.00 | 59 | 1023.5 |
| 20260902162608 | 89 | 328 | 1.0 | 4.0 | 0.00 | 0.00 | 0.00 | 58 | 1023.5 |
| 20260902162106 | 89 | 0 | 0.0 | 2.0 | 0.00 | 0.00 | 0.00 | 57 | 1023.5 |
| 20260902161607 | 89 | 0 | 0.0 | 2.0 | 0.00 | 0.00 | 0.00 | 59 | 1023.5 |
| 20260902161107 | 89 | 0 | 0.0 | 4.0 | 0.00 | 0.00 | 0.00 | 59 | 1023.5 |
| 20260902160606 | 89 | 0 | 0.0 | 4.0 | 0.00 | 0.00 | 0.00 | 61 | 1023.5 |
| 20260902160107 | 89 | 328 | 1.0 | 4.0 | 0.00 | 0.00 | 0.00 | 61 | 1023.5 |
| 20260902155606 | 88 | 0 | 0.0 | 2.0 | 0.00 | 0.00 | 0.00 | 62 | 1023.6 |
| 20260902155107 | 87 | 0 | 0.0 | 3.0 | 0.00 | 0.00 | 0.00 | 62 | 1023.6 |
| 20260902154608 | 86 | 0 | 0.0 | 3.0 | 0.00 | 0.00 | 0.00 | 63 | 1023.6 |
| 20260902154107 | 86 | 0 | 0.0 | 2.0 | 0.00 | 0.00 | 0.00 | 61 | 1023.6 |
| 20260902153606 | 87 | 0 | 0.0 | 2.0 | 0.00 | 0.00 | 0.00 | 62 | 1023.6 |
| 20260902153106 | 87 | 0 | 0.0 | 0.0 | 0.00 | 0.00 | 0.00 | 62 | 1023.6 |
| 20260902152608 | 86 | 0 | 0.0 | 0.0 | 0.00 | 0.00 | 0.00 | 62 | 1023.6 |
| 20260902152106 | 86 | 0 | 0.0 | 0.0 | 0.00 | 0.00 | 0.00 | 64 | 1023.7 |
| 20260902151609 | 86 | 0 | 0.0 | 2.0 | 0.00 | 0.00 | 0.00 | 64 | 1023.7 |
| 20260902151109 | 86 | 0 | 0.0 | 2.0 | 0.00 | 0.00 | 0.00 | 65 | 1023.7 |
| 20260902150517 | 86 | 0 | 0.0 | 3.0 | 0.00 | 0.00 | 0.00 | 62 | 1023.8 |
| 20260902150018 | 86 | 0 | 0.0 | 2.0 | 0.00 | 0.00 | 0.00 | 63 | 1023.7 |
| 20260902145520 | 85 | 0 | 0.0 | 3.0 | 0.00 | 0.00 | 0.00 | 64 | 1023.6 |
| 20260902145018 | 85 | 0 | 0.0 | 4.0 | 0.00 | 0.00 | 0.00 | 64 | 1023.6 |
| 20260902144517 | 85 | 328 | 1.0 | 4.0 | 0.00 | 0.00 | 0.00 | 62 | 1023.6 |
| 20260902144017 | 86 | 0 | 0.0 | 2.0 | 0.00 | 0.00 | 0.00 | 63 | 1023.5 |
| 20260902143521 | 86 | 0 | 0.0 | 2.0 | 0.00 | 0.00 | 0.00 | 64 | 1023.5 |
| 20260902143020 | 85 | 0 | 0.0 | 2.0 | 0.00 | 0.00 | 0.00 | 64 | 1023.4 |
| 20260902142517 | 85 | 0 | 0.0 | 3.0 | 0.00 | 0.00 | 0.00 | 65 | 1023.3 |
| 20260902142017 | 85 | 0 | 0.0 | 3.0 | 0.00 | 0.00 | 0.00 | 62 | 1023.3 |
| 20260902141609 | 85 | 0 | 0.0 | 0.0 | 0.00 | 0.00 | 0.00 | 62 | 1023.3 |
| 20260902141517 | 85 | 0 | 0.0 | 0.0 | 0.00 | 0.00 | 0.00 | 62 | 1023.3 |
| 20260902141240 | 84 | 0 | 0.0 | 0.0 | 0.00 | 0.00 | 0.00 | 64 | 1023.3 |
| 20260902141017 | 85 | 0 | 0.0 | 0.0 | 0.00 | 0.00 | 0.00 | 64 | 1023.3 |
| 20260902140519 | 84 | 0 | 0.0 | 0.0 | 0.00 | 0.00 | 0.00 | 64 | 1023.3 |
| 20260902140059 | 84 | 0 | 0.0 | 2.0 | 0.00 | 0.00 | 0.00 | 62 | 1023.1 |
| 20260902140019 | 84 | 0 | 0.0 | 1.0 | 0.00 | 0.00 | 0.00 | 63 | 1023.2 |
| 20260902135519 | 84 | 0 | 0.0 | 1.0 | 0.00 | 0.00 | 0.00 | 65 | 1023.3 |
| 20260902135018 | 84 | 0 | 0.0 | 0.0 | 0.00 | 0.00 | 0.00 | 63 | 1023.2 |
| 20260902134519 | 84 | 0 | 0.0 | 2.0 | 0.00 | 0.00 | 0.00 | 62 | 1023.1 |
| 20260902134018 | 84 | 0 | 0.0 | 2.0 | 0.00 | 0.00 | 0.00 | 64 | 1023.2 |
| 20260902133517 | 85 | 0 | 0.0 | 2.0 | 0.00 | 0.00 | 0.00 | 64 | 1023.3 |
| 20260902133018 | 85 | 0 | 0.0 | 0.0 | 0.00 | 0.00 | 0.00 | 63 | 1023.2 |
| 20260902132517 | 84 | 0 | 0.0 | 0.0 | 0.00 | 0.00 | 0.00 | 66 | 1023.2 |
| 20260902132017 | 84 | 0 | 0.0 | 0.0 | 0.00 | 0.00 | 0.00 | 68 | 1023.2 |
| 20260902131521 | 83 | 0 | 0.0 | 3.0 | 0.00 | 0.00 | 0.00 | 67 | 1023.2 |
| 20260902131231 | 83 | 0 | 0.0 | 3.0 | 0.00 | 0.00 | 0.00 | 67 | 1023.2 |
| 20260902131020 | 83 | 0 | 0.0 | 3.0 | 0.00 | 0.00 | 0.00 | 67 | 1023.2 |
| 20260902130521 | 83 | 0 | 0.0 | 1.0 | 0.00 | 0.00 | 0.00 | 66 | 1023.4 |
| 20260902130017 | 83 | 0 | 0.0 | 0.0 | 0.00 | 0.00 | 0.00 | 67 | 1023.4 |
| 20260902125519 | 82 | 0 | 0.0 | 0.0 | 0.00 | 0.00 | 0.00 | 66 | 1023.5 |
| 20260902124953 | 82 | 0 | 0.0 | 1.0 | 0.00 | 0.00 | 0.00 | 69 | 1023.4 |
| 20260902124242 | 81 | 0 | 0.0 | 3.0 | 0.00 | 0.00 | 0.00 | 73 | 1023.4 |
| 20260902123742 | 80 | 0 | 0.0 | 3.0 | 0.00 | 0.00 | 0.00 | 71 | 1023.3 |
| 20260902123243 | 80 | 0 | 0.0 | 2.0 | 0.00 | 0.00 | 0.00 | 71 | 1023.4 |
| 20260902122742 | 79 | 0 | 0.0 | 0.0 | 0.00 | 0.00 | 0.00 | 73 | 1023.4 |
| 20260902122242 | 78 | 0 | 0.0 | 2.0 | 0.00 | 0.00 | 0.00 | 75 | 1023.3 |
| 20260902121742 | 78 | 0 | 0.0 | 4.0 | 0.00 | 0.00 | 0.00 | 75 | 1023.2 |
| 20260902121242 | 78 | 328 | 1.0 | 6.0 | 0.00 | 0.00 | 0.00 | 75 | 1023.2 |
| 20260902120742 | 78 | 328 | 2.0 | 6.0 | 0.00 | 0.00 | 0.00 | 76 | 1023.1 |
| 20260902120242 | 78 | 328 | 3.0 | 5.0 | 0.00 | 0.00 | 0.00 | 76 | 1023.2 |
| 20260902115742 | 77 | 328 | 2.0 | 6.0 | 0.00 | 0.00 | 0.00 | 75 | 1023.1 |
| 20260902115243 | 78 | 328 | 3.0 | 8.0 | 0.00 | 0.00 | 0.00 | 75 | 1023.0 |
| 20260902114742 | 78 | 328 | 4.0 | 8.0 | 0.00 | 0.00 | 0.00 | 74 | 1022.9 |
| 20260902114243 | 78 | 328 | 4.0 | 8.0 | 0.00 | 0.00 | 0.00 | 74 | 1022.9 |
| 20260902113742 | 78 | 328 | 5.0 | 8.0 | 0.00 | 0.00 | 0.00 | 74 | 1022.8 |
| 20260902113243 | 78 | 328 | 3.0 | 8.0 | 0.00 | 0.00 | 0.00 | 74 | 1022.8 |
| 20260902112743 | 78 | 328 | 4.0 | 8.0 | 0.00 | 0.00 | 0.00 | 74 | 1022.8 |
| 20260902112243 | 78 | 328 | 4.0 | 8.0 | 0.00 | 0.00 | 0.00 | 74 | 1022.7 |
| 20260902111742 | 78 | 328 | 4.0 | 6.0 | 0.00 | 0.00 | 0.00 | 74 | 1022.7 |
| 20260902111242 | 78 | 328 | 4.0 | 6.0 | 0.00 | 0.00 | 0.00 | 74 | 1022.7 |
| 20260902110744 | 78 | 328 | 3.0 | 6.0 | 0.00 | 0.00 | 0.00 | 73 | 1022.7 |
| 20260902110242 | 78 | 328 | 4.0 | 6.0 | 0.00 | 0.00 | 0.00 | 73 | 1022.6 |
| 20260902105742 | 78 | 328 | 3.0 | 6.0 | 0.00 | 0.00 | 0.00 | 73 | 1022.6 |
| 20260902105242 | 78 | 328 | 3.0 | 6.0 | 0.00 | 0.00 | 0.00 | 74 | 1022.6 |
| 20260902104744 | 77 | 328 | 3.0 | 5.0 | 0.00 | 0.00 | 0.00 | 74 | 1022.6 |
| 20260902104243 | 77 | 328 | 3.0 | 6.0 | 0.00 | 0.00 | 0.00 | 75 | 1022.7 |
| 20260902103742 | 77 | 328 | 3.0 | 8.0 | 0.00 | 0.00 | 0.00 | 75 | 1022.7 |
| 20260902103242 | 77 | 328 | 4.0 | 8.0 | 0.00 | 0.00 | 0.00 | 75 | 1022.7 |
| 20260902102707 | 77 | 328 | 3.0 | 6.0 | 0.00 | 0.00 | 0.00 | 75 | 1022.7 |
| 20260902102101 | 77 | 328 | 4.0 | 6.0 | 0.00 | 0.00 | 0.00 | 75 | 1022.6 |
| 20260902101558 | 77 | 328 | 4.0 | 6.0 | 0.00 | 0.00 | 0.00 | 75 | 1022.6 |
| 20260902101058 | 77 | 328 | 4.0 | 8.0 | 0.00 | 0.00 | 0.00 | 75 | 1022.6 |
| 20260902100600 | 77 | 328 | 4.0 | 8.0 | 0.00 | 0.00 | 0.00 | 75 | 1022.5 |
| 20260902100059 | 77 | 328 | 3.0 | 6.0 | 0.00 | 0.00 | 0.00 | 75 | 1022.5 |
| 20260902095559 | 77 | 328 | 3.0 | 9.0 | 0.00 | 0.00 | 0.00 | 75 | 1022.6 |
| 20260902095058 | 77 | 328 | 3.0 | 9.0 | 0.00 | 0.00 | 0.00 | 75 | 1022.6 |
| 20260902094558 | 77 | 328 | 3.0 | 6.0 | 0.00 | 0.00 | 0.00 | 75 | 1022.6 |
| 20260902094058 | 77 | 328 | 2.0 | 5.0 | 0.00 | 0.00 | 0.00 | 75 | 1022.6 |
| 20260902093559 | 77 | 328 | 3.0 | 6.0 | 0.00 | 0.00 | 0.00 | 75 | 1022.5 |
| 20260902093103 | 77 | 328 | 2.0 | 6.0 | 0.00 | 0.00 | 0.00 | 75 | 1022.4 |
| 20260902092558 | 77 | 328 | 4.0 | 6.0 | 0.00 | 0.00 | 0.00 | 75 | 1022.4 |
| 20260902092058 | 77 | 328 | 3.0 | 8.0 | 0.00 | 0.00 | 0.00 | 75 | 1022.4 |
| 20260902091600 | 77 | 328 | 4.0 | 8.0 | 0.00 | 0.00 | 0.00 | 75 | 1022.4 |
| 20260902091058 | 77 | 328 | 3.0 | 8.0 | 0.00 | 0.00 | 0.00 | 75 | 1022.4 |
| 20260902090558 | 77 | 328 | 3.0 | 8.0 | 0.00 | 0.00 | 0.00 | 74 | 1022.5 |
| 20260902090058 | 77 | 328 | 4.0 | 8.0 | 0.00 | 0.00 | 0.00 | 75 | 1022.5 |
| 20260902085558 | 77 | 328 | 4.0 | 8.0 | 0.00 | 0.00 | 0.00 | 74 | 1022.5 |
| 20260902085059 | 77 | 328 | 3.0 | 6.0 | 0.00 | 0.00 | 0.00 | 75 | 1022.5 |
| 20260902084601 | 77 | 328 | 3.0 | 6.0 | 0.00 | 0.00 | 0.00 | 75 | 1022.4 |
| 20260902084058 | 77 | 328 | 2.0 | 9.0 | 0.00 | 0.00 | 0.00 | 75 | 1022.4 |
| 20260902083558 | 77 | 328 | 5.0 | 9.0 | 0.00 | 0.00 | 0.00 | 75 | 1022.3 |
| 20260902083058 | 77 | 328 | 4.0 | 9.0 | 0.00 | 0.00 | 0.00 | 75 | 1022.3 |
| 20260902082558 | 77 | 328 | 5.0 | 9.0 | 0.00 | 0.00 | 0.00 | 75 | 1022.2 |
| 20260902082058 | 77 | 328 | 5.0 | 8.0 | 0.00 | 0.00 | 0.00 | 75 | 1022.3 |
| 20260902081558 | 77 | 328 | 4.0 | 8.0 | 0.00 | 0.00 | 0.00 | 75 | 1022.2 |
| 20260902081058 | 77 | 328 | 3.0 | 6.0 | 0.00 | 0.00 | 0.00 | 74 | 1022.3 |
| 20260902080300 | 77 | 328 | 2.0 | 6.0 | 0.00 | 0.00 | 0.00 | 75 | 1022.2 |
| 20260902080227 | 77 | 328 | 2.0 | 6.0 | 0.00 | 0.00 | 0.00 | 75 | 1022.2 |
| 20260902075725 | 77 | 328 | 3.0 | 8.0 | 0.00 | 0.00 | 0.00 | 75 | 1022.2 |
| 20260902075231 | 77 | 328 | 3.0 | 9.0 | 0.00 | 0.00 | 0.00 | 75 | 1022.3 |
| 20260902074727 | 77 | 328 | 4.0 | 9.0 | 0.00 | 0.00 | 0.00 | 75 | 1022.2 |
| 20260902074226 | 77 | 328 | 4.0 | 6.0 | 0.00 | 0.00 | 0.00 | 75 | 1022.3 |
| 20260902073728 | 77 | 328 | 2.0 | 6.0 | 0.00 | 0.00 | 0.00 | 75 | 1022.3 |
| 20260902073226 | 77 | 328 | 2.0 | 6.0 | 0.00 | 0.00 | 0.00 | 75 | 1022.3 |
| 20260902072725 | 77 | 328 | 3.0 | 6.0 | 0.00 | 0.00 | 0.00 | 75 | 1022.4 |
| 20260902072227 | 77 | 328 | 2.0 | 6.0 | 0.00 | 0.00 | 0.00 | 74 | 1022.4 |
| 20260902071725 | 77 | 328 | 3.0 | 8.0 | 0.00 | 0.00 | 0.00 | 74 | 1022.5 |
| 20260902071225 | 77 | 328 | 3.0 | 8.0 | 0.00 | 0.00 | 0.00 | 74 | 1022.5 |
| 20260902070725 | 77 | 328 | 2.0 | 6.0 | 0.00 | 0.00 | 0.00 | 74 | 1022.5 |
| 20260902070435 | 77 | 328 | 1.0 | 5.0 | 0.00 | 0.00 | 0.00 | 73 | 1022.5 |
| 20260902070225 | 77 | 328 | 1.0 | 5.0 | 0.00 | 0.00 | 0.00 | 73 | 1022.5 |
| 20260902065725 | 77 | 328 | 1.0 | 5.0 | 0.00 | 0.00 | 0.00 | 73 | 1022.5 |
| 20260902065226 | 78 | 328 | 1.0 | 9.0 | 0.00 | 0.00 | 0.00 | 73 | 1022.5 |
| 20260902064726 | 78 | 328 | 2.0 | 9.0 | 0.00 | 0.00 | 0.00 | 73 | 1022.4 |
| 20260902064226 | 78 | 328 | 2.0 | 6.0 | 0.00 | 0.00 | 0.00 | 72 | 1022.5 |
| 20260902063728 | 78 | 328 | 1.0 | 8.0 | 0.00 | 0.00 | 0.00 | 72 | 1022.4 |
| 20260902063231 | 78 | 328 | 2.0 | 8.0 | 0.00 | 0.00 | 0.00 | 72 | 1022.5 |
| 20260902062725 | 78 | 328 | 2.0 | 4.0 | 0.00 | 0.00 | 0.00 | 72 | 1022.5 |
| 20260902062226 | 78 | 0 | 0.0 | 5.0 | 0.00 | 0.00 | 0.00 | 71 | 1022.5 |
| 20260902061727 | 78 | 328 | 1.0 | 5.0 | 0.00 | 0.00 | 0.00 | 72 | 1022.5 |
| 20260902061227 | 78 | 0 | 0.0 | 4.0 | 0.00 | 0.00 | 0.00 | 72 | 1022.4 |
| 20260902060725 | 78 | 0 | 0.0 | 4.0 | 0.00 | 0.00 | 0.00 | 72 | 1022.5 |
| 20260902060229 | 78 | 0 | 0.0 | 4.0 | 0.00 | 0.00 | 0.00 | 72 | 1022.4 |
| 20260902055729 | 78 | 0 | 0.0 | 5.0 | 0.00 | 0.00 | 0.00 | 72 | 1022.3 |
| 20260902055230 | 78 | 328 | 2.0 | 5.0 | 0.00 | 0.00 | 0.00 | 72 | 1022.2 |
| 20260902054726 | 78 | 328 | 1.0 | 8.0 | 0.00 | 0.00 | 0.00 | 71 | 1022.2 |
| 20260902054226 | 78 | 328 | 3.0 | 8.0 | 0.00 | 0.00 | 0.00 | 71 | 1022.2 |
| 20260902053727 | 78 | 328 | 1.0 | 5.0 | 0.00 | 0.00 | 0.00 | 70 | 1022.2 |
| 20260902053227 | 78 | 328 | 1.0 | 3.0 | 0.00 | 0.00 | 0.00 | 70 | 1022.2 |
| 20260902052726 | 79 | 328 | 1.0 | 4.0 | 0.00 | 0.00 | 0.00 | 70 | 1022.2 |
| 20260902052225 | 79 | 0 | 0.0 | 4.0 | 0.00 | 0.00 | 0.00 | 70 | 1022.2 |
| 20260902051727 | 79 | 0 | 0.0 | 5.0 | 0.00 | 0.00 | 0.00 | 70 | 1022.1 |
| 20260902051230 | 79 | 328 | 1.0 | 5.0 | 0.00 | 0.00 | 0.00 | 70 | 1022.1 |
| 20260902050725 | 79 | 328 | 1.0 | 6.0 | 0.00 | 0.00 | 0.00 | 71 | 1022.1 |
| 20260902050227 | 78 | 328 | 1.0 | 6.0 | 0.00 | 0.00 | 0.00 | 71 | 1022.1 |
| 20260902045725 | 78 | 328 | 2.0 | 5.0 | 0.00 | 0.00 | 0.00 | 71 | 1021.9 |
| 20260902045308 | 78 | 328 | 1.0 | 4.0 | 0.00 | 0.00 | 0.00 | 71 | 1021.9 |
| 20260902045227 | 78 | 328 | 1.0 | 4.0 | 0.00 | 0.00 | 0.00 | 71 | 1021.9 |
| 20260902044255 | 79 | 328 | 1.0 | 5.0 | 0.00 | 0.00 | 0.00 | 70 | 1022.1 |
| 20260902043757 | 79 | 0 | 0.0 | 5.0 | 0.00 | 0.00 | 0.00 | 70 | 1022.1 |
| 20260902043254 | 79 | 328 | 1.0 | 5.0 | 0.00 | 0.00 | 0.00 | 70 | 1022.1 |
| 20260902042755 | 79 | 328 | 2.0 | 6.0 | 0.00 | 0.00 | 0.00 | 69 | 1022.1 |
| 20260902042259 | 79 | 328 | 1.0 | 8.0 | 0.00 | 0.00 | 0.00 | 69 | 1022.1 |
| 20260902041754 | 79 | 328 | 2.0 | 8.0 | 0.00 | 0.00 | 0.00 | 69 | 1022.1 |
| 20260902041256 | 80 | 328 | 2.0 | 6.0 | 0.00 | 0.00 | 0.00 | 68 | 1022.1 |
| 20260902040754 | 80 | 328 | 1.0 | 5.0 | 0.00 | 0.00 | 0.00 | 68 | 1022.2 |
| 20260902040254 | 80 | 328 | 1.0 | 5.0 | 0.00 | 0.00 | 0.00 | 67 | 1022.3 |
| 20260902035754 | 80 | 328 | 1.0 | 6.0 | 0.00 | 0.00 | 0.00 | 68 | 1022.2 |
| 20260902035258 | 80 | 328 | 3.0 | 6.0 | 0.00 | 0.00 | 0.00 | 68 | 1022.2 |
| 20260902034754 | 79 | 328 | 3.0 | 6.0 | 0.00 | 0.00 | 0.00 | 68 | 1022.2 |
| 20260902034258 | 80 | 328 | 2.0 | 6.0 | 0.00 | 0.00 | 0.00 | 69 | 1022.1 |
| 20260902033754 | 80 | 328 | 1.0 | 5.0 | 0.00 | 0.00 | 0.00 | 69 | 1022.1 |
| 20260902032603 | 80 | 328 | 2.0 | 6.0 | 0.00 | 0.00 | 0.00 | 69 | 1022.0 |
| 20260902032103 | 80 | 328 | 3.0 | 6.0 | 0.00 | 0.00 | 0.00 | 69 | 1022.0 |
| 20260902031603 | 80 | 328 | 2.0 | 6.0 | 0.00 | 0.00 | 0.00 | 69 | 1022.0 |
| 20260902031107 | 80 | 328 | 1.0 | 4.0 | 0.00 | 0.00 | 0.00 | 69 | 1022.0 |
| 20260902030603 | 80 | 0 | 0.0 | 5.0 | 0.00 | 0.00 | 0.00 | 69 | 1022.0 |
| 20260902030103 | 80 | 328 | 1.0 | 5.0 | 0.00 | 0.00 | 0.00 | 70 | 1022.0 |
| 20260902025603 | 80 | 328 | 1.0 | 5.0 | 0.00 | 0.00 | 0.00 | 70 | 1022.1 |
| 20260902025104 | 80 | 328 | 1.0 | 4.0 | 0.00 | 0.00 | 0.00 | 69 | 1022.0 |
| 20260902024603 | 80 | 328 | 1.0 | 3.0 | 0.00 | 0.00 | 0.00 | 69 | 1022.1 |
| 20260902024103 | 80 | 0 | 0.0 | 5.0 | 0.00 | 0.00 | 0.00 | 69 | 1022.2 |
| 20260902023603 | 80 | 328 | 1.0 | 5.0 | 0.00 | 0.00 | 0.00 | 69 | 1022.2 |
| 20260902022604 | 80 | 0 | 0.0 | 6.0 | 0.00 | 0.00 | 0.00 | 69 | 1022.3 |
| 20260902022104 | 80 | 328 | 1.0 | 6.0 | 0.00 | 0.00 | 0.00 | 68 | 1022.2 |
| 20260902021604 | 80 | 0 | 0.0 | 3.0 | 0.00 | 0.00 | 0.00 | 69 | 1022.1 |
| 20260902021114 | 81 | 0 | 0.0 | 4.0 | 0.00 | 0.00 | 0.00 | 69 | 1022.1 |
| 20260902020604 | 81 | 328 | 1.0 | 6.0 | 0.00 | 0.00 | 0.00 | 68 | 1022.1 |
| 20260902020104 | 81 | 328 | 1.0 | 16.0 | 0.00 | 0.00 | 0.00 | 68 | 1022.0 |
| 20260902015604 | 81 | 0 | 0.0 | 16.0 | 0.00 | 0.00 | 0.00 | 68 | 1022.0 |
| 20260902015112 | 81 | 328 | 1.0 | 9.0 | 0.00 | 0.00 | 0.00 | 68 | 1021.9 |
| 20260902014604 | 81 | 0 | 0.0 | 3.0 | 0.00 | 0.00 | 0.00 | 68 | 1021.8 |
| 20260902014105 | 81 | 0 | 0.0 | 3.0 | 0.00 | 0.00 | 0.00 | 67 | 1021.8 |
| 20260902013604 | 81 | 0 | 0.0 | 2.0 | 0.00 | 0.00 | 0.00 | 67 | 1021.6 |
| 20260902013104 | 82 | 0 | 0.0 | 3.0 | 0.00 | 0.00 | 0.00 | 66 | 1021.6 |
| 20260902012604 | 82 | 0 | 0.0 | 3.0 | 0.00 | 0.00 | 0.00 | 66 | 1021.6 |
| 20260902012104 | 82 | 0 | 0.0 | 2.0 | 0.00 | 0.00 | 0.00 | 66 | 1021.5 |
| 20260902011604 | 82 | 0 | 0.0 | 1.0 | 0.00 | 0.00 | 0.00 | 65 | 1021.5 |
| 20260902011052 | 82 | 0 | 0.0 | 2.0 | 0.00 | 0.00 | 0.00 | 65 | 1021.4 |
| 20260902005604 | 82 | 0 | 0.0 | 0.0 | 0.00 | 0.00 | 0.00 | 65 | 1021.4 |
| 20260902005104 | 82 | 0 | 0.0 | 0.0 | 0.00 | 0.00 | 0.00 | 65 | 1021.3 |
| 20260902004602 | 83 | 0 | 0.0 | 0.0 | 0.00 | 0.00 | 0.00 | 65 | 1021.3 |
| 20260902004102 | 82 | 0 | 0.0 | 0.0 | 0.00 | 0.00 | 0.00 | 65 | 1021.3 |
| 20260902003602 | 82 | 0 | 0.0 | 0.0 | 0.00 | 0.00 | 0.00 | 65 | 1021.3 |
| 20260902003102 | 82 | 0 | 0.0 | 0.0 | 0.00 | 0.00 | 0.00 | 65 | 1021.3 |
| 20260902002602 | 82 | 0 | 0.0 | 0.0 | 0.00 | 0.00 | 0.00 | 66 | 1021.3 |
| 20260902002103 | 82 | 0 | 0.0 | 0.0 | 0.00 | 0.00 | 0.00 | 67 | 1021.2 |
| 20260902001602 | 82 | 0 | 0.0 | 0.0 | 0.00 | 0.00 | 0.00 | 67 | 1021.3 |
| 20260902000650 | 82 | 0 | 0.0 | 1.0 | 0.00 | 0.00 | 0.00 | 67 | 1021.3 |
| 20260902000150 | 82 | 0 | 0.0 | 1.0 | 0.00 | 0.00 | 0.00 | 67 | 1021.3 |
| 20260901235650 | 83 | 0 | 0.0 | 0.0 | 0.00 | 0.00 | 0.00 | 67 | 1021.2 |
| 20260901235150 | 83 | 0 | 0.0 | 0.0 | 0.00 | 0.00 | 0.00 | 66 | 1021.2 |
| 20260901234650 | 83 | 0 | 0.0 | 0.0 | 0.00 | 0.00 | 0.00 | 66 | 1021.3 |